www.pogodaiklimat.ru

Погода и климат >> Архив погоды >> Бельгия >> Шьевр


ПОГОДА в Шьевре

  • Прогноз погоды в Шьевре
  • Монитор погоды в Шьевре

АРХИВ ПОГОДЫ в Шьевре

Время (UTC), дата Ветер
(напр.,м/с)
 
Видим.   Явления Облачность Т
(С)
Тd
(С)
f
(%)
Тe
(С)
Тes
(С)
Комфортность P
(гПа)
Po
(гПа)
Тmin
(С)
Tmax
(С)
R
(мм)
R24
(мм)
S
(см)
10 12.01 ЮЗ 6
{11}
20 км н/о +7.0 +3.8 80 +3 +3 1023.5 1016.2
11 12.01 ЮЗ 6
{9}
20 км н/о +7.0 +4.5 84 +3 +3 1023.2 1015.7
12 12.01 ЮЗ 5
{11}
11 км н/о +6.5 +5.4 93 +2 +2 1022.1 1014.7
13 12.01 ЮЗ 5
{8}
3200 м сильн. морось {дождь} н/о +6.9 +6.4 97 +3 +3 1020.8 1013.6
14 12.01 З 6
{9}
15 км {дождь, морось} н/о +7.8 +7.2 96 +3 +3 1020.0 1012.7
15 12.01 З 6
{10}
12 км слаб. дождь {морось} н/о +7.8 +7.2 96 +3 +3 1019.5 1012.2
16 12.01 З 5
{9}
14 км слаб. дождь н/о +7.8 +7.0 95 +4 +4 1019.2 1012.1
17 12.01 З 5
{8}
19 км {дождь} н/о +7.8 +6.9 94 +4 +4 1019.0 1011.7
18 12.01 З 5
{10}
17 км {дождь, морось} н/о +7.9 +6.8 93 +4 +4 1018.8 1011.6 +8.0 1
19 12.01 З 5
{9}
17 км н/о +7.6 +6.6 93 +4 +4 1018.8 1011.6
20 12.01 З 4
{7}
16 км н/о +7.5 +6.3 92 +4 +4 1018.3 1011.1
21 12.01 З 4
{9}
15 км н/о +7.4 +6.4 93 +4 +4 1018.0 1010.7
22 12.01 З 5
{7}
18 км н/о +7.6 +6.1 90 +4 +4 1017.7 1010.6
23 12.01 З 4
{8}
20 км н/о +7.6 +5.8 88 +4 +4 1017.6 1010.2
00 13.01 З 5
{9}
3100 м морось {дождь} н/о +7.0 +6.4 96 +3 +3 1017.1 1009.7 0.1
01 13.01 З 5
{8}
8000 м морось {дождь} н/о +7.1 +6.8 98 +3 +3 1016.5 1009.2
02 13.01 З 5
{7}
7000 м морось {дождь} н/о +7.4 +7.1 98 +3 +3 1016.2 1008.8
03 13.01 З 6
{8}
5000 м дымка {дождь} н/о +7.8 +7.1 95 +3 +3 1016.0 1008.7
04 13.01 З 5
{8}
3400 м морось {дождь} н/о +7.8 +7.5 98 +4 +4 1015.1 1007.8
05 13.01 З 5
{8}
14 км {морось} н/о +8.5 +7.3 92 +5 +5 1015.0 1007.7
06 13.01 З 5
{9}
20 км {дождь, морось} н/о +8.5 +6.9 90 +5 +5 1013.7 1006.3 +6.9 0.9
07 13.01 З 7
{10}
20 км н/о +8.6 +6.7 88 +4 +4 1013.6 1006.3
08 13.01 З 5
{10}
19 км н/о +8.5 +6.9 90 +5 +5 1013.8 1006.7
09 13.01 З 7
{10}
20 км н/о +9.1 +7.1 87 +5 +5 1013.3 1006.2
10 13.01 З 7
{11}
19 км н/о +9.3 +7.3 87 +5 +5 1012.6 1005.3
11 13.01 З 8
{11}
19 км н/о +9.8 +7.7 87 +6 +6 1012.2 1005.0
12 13.01 З 7
{11}
18 км слаб. дождь н/о +9.9 +7.9 87 +6 +6 1011.3 1004.2 0.2
13 13.01 З 8
{12}
10 км дождь н/о +9.3 +8.4 94 +5 +5 1010.2 1003.1
14 13.01 З 7
{12}
20 км {дождь} н/о +9.5 +8.0 90 +5 +5 1009.6 1002.3
15 13.01 З 8
{12}
19 км {дождь} н/о +9.6 +7.6 87 +5 +5 1009.3 1002.2
16 13.01 З 7
{12}
20 км н/о +9.3 +7.3 87 +5 +5 1009.8 1002.7
17 13.01 З 7
{10}
20 км н/о +9.3 +7.2 87 +5 +5 1009.8 1002.7
18 13.01 З 6
{12}
19 км {дождь} н/о +9.3 +7.5 89 +6 +6 1009.3 1002.2 +10.1 2
19 13.01 З 6
{12}
20 км {дождь, морось} н/о +9.3 +7.7 90 +6 +6 1009.0 1001.8
20 13.01 З 7
{11}
4200 м сильн. дождь н/о +8.9 +7.9 93 +5 +5 1009.0 1001.7
21 13.01 СЗ 9
{14}
20 км слаб. дождь {морось} н/о +8.6 +6.4 86 +4 +4 1009.2 1002.1
22 13.01 СЗ 8
{13}
20 км {дождь} н/о +8.6 +6.0 84 +4 +4 1009.6 1002.3
23 13.01 СЗ 8
{13}
20 км н/о +7.9 +3.7 75 +3 +3 1010.6 1003.3
00 14.01 СЗ 6
{14}
20 км {дождь, морось} н/о +7.8 +3.9 76 +4 +4 1011.0 1003.7 2
01 14.01 СЗ 7
{11}
18 км н/о +7.5 +3.9 78 +3 +3 1011.7 1004.5
02 14.01 СЗ 6
{10}
19 км н/о +7.2 +4.0 80 +3 +3 1012.3 1005.2
03 14.01 СЗ 7
{11}
19 км н/о +7.2 +4.2 81 +3 +3 1013.2 1006.0
04 14.01 СЗ 7
{10}
17 км {дождь, морось} н/о +7.3 +4.0 80 +3 +3 1013.7 1006.5
05 14.01 СЗ 5
{10}
18 км н/о +6.8 +4.0 82 +3 +3 1013.8 1006.7
06 14.01 СЗ 6
{11}
18 км {дождь, морось} н/о +6.6 +3.8 82 +2 +2 1014.8 1007.6 +6.5 2
07 14.01 СЗ 7
{9}
20 км н/о +6.3 +3.4 82 +1 +1 1015.3 1008.1
08 14.01 СЗ 5
{8}
18 км н/о +5.9 +3.4 84 +2 +2 1016.1 1008.7
09 14.01 СЗ 5
{9}
16 км н/о +5.9 +3.7 86 +1 +1 1017.1 1009.7
10 14.01 СЗ 6
{9}
20 км н/о +6.7 +3.8 82 +2 +2 1017.5 1010.2
11 14.01 СЗ 7
{10}
17 км н/о +7.0 +4.2 82 +2 +2 1018.1 1010.7
12 14.01 СЗ 7
{11}
20 км н/о +7.8 +4.2 78 +3 +3 1018.5 1011.2
13 14.01 СЗ 5
{10}
20 км н/о +7.9 +3.4 73 +4 +4 1019.1 1011.7
14 14.01 СЗ 5
{14}
20 км {дождь} н/о +6.5 +3.5 81 +2 +2 1019.7 1012.5
15 14.01 СЗ 5
{14}
20 км {дождь} н/о +6.0 +2.9 80 +2 +2 1020.6 1013.2
16 14.01 СЗ 3
{6}
20 км н/о +5.8 +2.3 78 +3 +3 1021.3 1014.1
17 14.01 СЗ 3
{5}
20 км {дождь, морось} н/о +5.1 +3.1 87 +2 +2 1021.7 1014.3
18 14.01 СЗ 3
{14}
20 км {дождь, морось} н/о +4.0 +2.2 88 0 0 1022.3 1015.0 +8.0 0.1
19 14.01
{4}
20 км н/о +3.7 +2.2 90 1022.7 1015.2
20 14.01 З 2
{3}
20 км н/о +3.7 +2.6 93 +1 +1 1022.8 1015.5
21 14.01
{4}
13 км н/о +3.0 +2.3 95 1023.0 1015.6
22 14.01 Ю 2
{2}
7000 м н/о +3.5 +3.0 97 0 0 1023.1 1015.7
23 14.01
{3}
4800 м слаб. морось н/о +3.8 +3.5 98 1023.3 1016.0
00 15.01
{4}
1300 м дымка н/о +2.0 +1.8 99 1023.5 1016.0 0.0
01 15.01 Ю 2
{3}
4900 м дымка н/о +1.7 +1.5 99 -2 -2 1023.1 1015.6
02 15.01 ЮЗ 2
{3}
7000 м н/о +2.0 +1.9 99 -2 -2 1023.3 1015.8
03 15.01 ЮЗ 3
{4}
8000 м н/о +3.7 +3.1 96 -0 -0 1023.2 1015.7
04 15.01 ЮЗ 3
{4}
9000 м н/о +3.9 +3.3 96 -0 -0 1023.0 1015.5
05 15.01 ЮЗ 3
{4}
8000 м н/о +4.0 +3.5 97 0 0 1022.6 1015.1
06 15.01 ЮЗ 3
{4}
11 км н/о +4.3 +3.6 95 0 0 1022.2 1014.7 +1.1 0.0
07 15.01 ЮЗ 3
{4}
12 км н/о +3.9 +3.2 95 -0 -0 1022.3 1015.0
08 15.01 ЮЗ 3
{4}
12 км н/о +3.0 +2.5 97 -1 -1 1022.3 1015.0
09 15.01 ЮЗ 3
{5}
15 км н/о +3.7 +2.9 95 -0 -0 1022.6 1015.1
10 15.01 ЮЗ 5
{7}
20 км н/о +5.6 +3.5 86 +1 +1 1022.3 1015.1
11 15.01 ЮЗ 5
{8}
19 км н/о +6.8 +3.5 79 +3 +3 1021.8 1014.6
12 15.01 ЮЗ 5
{9}
20 км н/о +7.0 +3.7 79 +3 +3 1021.5 1014.1
13 15.01 ЮЗ 5
{8}
20 км н/о +6.9 +3.7 80 +3 +3 1021.0 1013.7
14 15.01 ЮЗ 5
{8}
15 км н/о +6.5 +4.2 85 +2 +2 1020.7 1013.3
15 15.01 З 5
{8}
20 км {дождь, морось} н/о +6.3 +4.8 90 +2 +2 1020.7 1013.5
16 15.01 ЮЗ 5
{7}
17 км н/о +6.0 +5.0 93 +2 +2 1020.5 1013.1
17 15.01 ЮЗ 4
{8}
5000 м морось н/о +6.0 +5.5 97 +2 +2 1020.3 1013.1
18 15.01 ЮЗ 5
{8}
8000 м {дождь, морось} н/о +6.0 +5.6 97 +1 +1 1019.8 1012.5 +7.0 0.2
19 15.01 ЮЗ 5
{9}
13 км н/о +6.1 +5.7 97 +2 +2 1019.8 1012.5
20 15.01 ЮЗ 5
{8}
4700 м дымка н/о +5.8 +5.4 97 +1 +1 1019.3 1012.1
21 15.01 ЮЗ 5
{9}
9000 м {морось} н/о +5.6 +4.9 95 +1 +1 1019.0 1011.6
22 15.01 ЮЗ 5
{7}
18 км н/о +5.9 +4.4 90 +1 +1 1018.6 1011.2
23 15.01 ЮЗ 5
{8}
20 км н/о +6.0 +4.1 88 +2 +2 1018.1 1010.7
00 16.01 ЮЗ 6
{9}
17 км {морось} н/о +6.0 +4.1 88 +1 +1 1017.6 1010.2 0.1
01 16.01 ЮЗ 6
{9}
20 км н/о +6.0 +3.8 86 +1 +1 1016.8 1009.6
02 16.01 ЮЗ 6
{9}
20 км н/о +6.0 +3.5 84 +1 +1 1016.6 1009.2
03 16.01 ЮЗ 6
{9}
20 км н/о +5.9 +3.3 83 +1 +1 1015.8 1008.6
04 16.01 Ю 5
{8}
20 км н/о +5.8 +3.0 82 +1 +1 1015.2 1007.8
05 16.01 Ю 6
{8}
20 км н/о +5.6 +2.5 80 +1 +1 1014.3 1007.1
06 16.01 ЮЗ 7
{10}
20 км н/о +5.5 +2.3 80 0 0 1014.0 1006.7 +5.5 0.1
07 16.01 ЮЗ 6
{10}
20 км н/о +5.2 +2.6 83 0 0 1013.6 1006.2
08 16.01 Ю 6
{9}
18 км н/о +5.0 +2.5 84 -0 -0 1013.1 1005.7
09 16.01 Ю 7
{10}
18 км н/о +4.6 +2.3 85 -1 -1 1013.0 1005.7
10 16.01 Ю 7
{11}
17 км н/о +4.8 +2.1 83 -1 -1 1012.2 1004.8
11 16.01 ЮЗ 6
{11}
20 км н/о +5.2 +2.3 82 0 0 1011.6 1004.2
12 16.01 ЮЗ 8
{11}
20 км н/о +5.3 +1.7 78 -0 -0 1010.2 1003.0
13 16.01 ЮЗ 8
{12}
20 км н/о +5.3 +1.6 77 -0 -0 1009.2 1002.0
14 16.01 ЮЗ 5
{11}
17 км н/о +5.5 +2.4 80 +1 +1 1008.1 1000.7
15 16.01 ЮЗ 8
{12}
17 км н/о +5.5 +2.2 79 -0 -0 1007.7 1000.3
16 16.01 ЮЗ 7
{11}
16 км н/о +5.5 +2.3 80 0 0 1007.1 999.9
17 16.01 ЮЗ 7
{11}
16 км н/о +5.3 +2.2 80 0 0 1006.6 999.3
18 16.01 Ю 7
{12}
17 км н/о +5.3 +2.4 82 -0 -0 1006.1 998.8 +5.6
19 16.01 ЮЗ 7
{11}
17 км н/о +5.5 +2.3 80 0 0 1005.2 998.0
20 16.01 ЮЗ 8
{12}
16 км н/о +5.6 +2.5 80 0 0 1005.0 997.8
21 16.01 ЮЗ 8
{13}
14 км {дождь, морось} н/о +4.8 +3.7 93 -1 -1 1004.7 997.6
22 16.01 ЮЗ 8
{13}
6000 м дождь {морось} н/о +5.0 +4.0 93 -1 -1 1004.3 997.1
23 16.01 ЮЗ 8
{12}
13 км {дождь} н/о +5.6 +4.4 92 -0 -0 1004.3 997.2
00 17.01 ЮЗ 6
{13}
3200 м морось {дождь} н/о +5.6 +5.1 97 0 0 1004.7 997.6 0.6
01 17.01 ЮЗ 4
{10}
20 км слаб. морось {дождь} н/о +5.6 +4.8 95 +1 +1 1005.0 997.7
02 17.01 ЮЗ 3
{6}
13 км {морось} н/о +5.5 +4.6 94 +2 +2 1005.0 997.7
03 17.01 ЮЗ 3
{10}
6000 м {дождь, морось} н/о +4.9 +4.6 98 +1 +1 1004.7 997.5
04 17.01 ЮЗ 4
{6}
5000 м н/о +4.4 +4.1 98 -0 -0 1004.5 997.2
05 17.01 ЮЗ 5
{7}
10 км н/о +4.5 +4.1 97 -1 -1 1004.0 996.7
06 17.01 ЮЗ 4
{10}
19 км слаб. дождь {морось} н/о +4.7 +3.8 94 0 0 1003.6 996.4 +4.3 0.7
07 17.01 ЮЗ 7
{9}
11 км сильн. морось {дождь} н/о +5.1 +4.2 94 -1 -1 1003.2 996.0
08 17.01 З 6
{11}
18 км слаб. дождь {морось} н/о +4.6 +3.6 93 -1 -1 1004.0 996.7
09 17.01 ЮЗ 5
{11}
20 км слаб. дождь {морось} н/о +4.3 +3.1 92 -1 -1 1004.6 997.4
10 17.01 З 7
{10}
13 км слаб. дождь н/о +4.3 +3.2 93 -2 -2 1005.8 998.6
11 17.01 СЗ 6
{10}
19 км {дождь} н/о +5.0 +3.1 88 -0 -0 1006.8 999.6
12 17.01 СЗ 8
{12}
20 км {дождь, морось} н/о +3.9 +2.0 87 -2 -2 1007.7 1000.5 3
13 17.01 СЗ 6
{11}
20 км {дождь} н/о +4.6 +1.8 82 -1 -1 1008.5 1001.2
14 17.01 СЗ 7
{12}
19 км {дождь} н/о +3.6 +0.1 78 -2 -2 1009.7 1002.3
15 17.01 З 8
{12}
20 км {дождь} н/о +4.0 -0.5 72 -2 -2 1010.6 1003.2
16 17.01 З 7
{14}
20 км н/о +3.2 -0.8 75 -3 -3 1011.7 1004.2
17 17.01 З 7
{11}
20 км н/о +3.2 -0.4 77 -3 -3 1012.3 1005.0
18 17.01 СЗ 9
{14}
13 км слаб. дождь н/о +1.5 +0.3 92 -6 -6 1014.0 1006.6 +5.3 3
19 17.01 З 5
{13}
19 км слаб. дождь н/о +1.2 +0.4 94 -5 -5 1015.0 1007.5
20 17.01 З 4
{8}
16 км слаб. дождь н/о +1.3 +0.4 94 -4 -4 1015.7 1008.2
21 17.01 З 2
{13}
20 км {снег, дождь} н/о +0.5 +0.1 97 -3 -3 1016.2 1008.8
22 17.01 З 3
{5}
19 км {дождь} н/о +2.0 +0.5 90 -2 -2 1016.7 1009.3
23 17.01 З 2
{9}
12 км слаб. дождь н/о +0.3 +0.2 99 -4 -4 1017.6 1010.1
00 18.01
{13}
19 км {снег, дождь} н/о +0.4 +0.1 98 1017.8 1010.3 2
01 18.01
{2}
10 км {дождь} н/о +0.4 +0.3 99 1018.3 1010.8
02 18.01 ЮЗ 3
{4}
8000 м н/о +0.4 0.0 97 -4 -4 1018.8 1011.3
03 18.01 ЮЗ 2
{4}
10 км {дождь} н/о +0.4 0.0 97 -3 -3 1019.2 1011.7
04 18.01 ЮЗ 2
{3}
8000 м н/о -0.5 -0.9 97 -4 -4 1019.2 1011.7
05 18.01
{3}
6000 м н/о -0.9 -1.2 98 1019.5 1011.8
06 18.01
{4}
7000 м {дождь} н/о -0.8 -1.3 96 1019.8 1012.2 -1.3 3
07 18.01 ЮЗ 2
{2}
6000 м н/о -1.2 -1.5 98 -5 -5 1020.1 1012.6
08 18.01
{2}
6000 м н/о -0.8 -1.1 98 1020.6 1013.1
09 18.01 Ю 2
{3}
7000 м н/о -0.3 -0.6 98 -4 -4 1020.8 1013.3
10 18.01 Ю 2
{2}
4500 м дымка н/о +0.4 0.0 97 -3 -3 1021.3 1013.7
11 18.01
{2}
6000 м н/о +1.1 +0.4 95 1021.2 1013.7
12 18.01 ЮВ 2
{3}
6000 м н/о +1.7 +0.9 94 -2 -2 1020.8 1013.3
13 18.01 Ю 3
{4}
7000 м н/о +2.6 +1.6 93 -2 -2 1020.3 1013.0
14 18.01 ЮВ 2
{4}
8000 м н/о +3.2 +1.6 89 0 0 1020.2 1012.7
15 18.01
{4}
7000 м н/о +2.9 +1.8 92 1019.8 1012.5
16 18.01
{4}
8000 м н/о +1.7 +0.6 92 1019.8 1012.5
17 18.01 Ю 2
{3}
6000 м н/о +0.3 -0.4 95 -3 -3 1019.8 1012.3
18 18.01 Ю 2
{4}
7000 м н/о -0.4 -1.2 94 -4 -4 1019.7 1012.1 +3.4
19 18.01 Ю 2
{3}
9000 м н/о -0.1 -1.2 92 -4 -4 1019.6 1012.1
20 18.01 Ю 2
{3}
8000 м н/о -0.3 -1.4 92 -4 -4 1019.3 1011.8
21 18.01 ЮВ 2
{3}
8000 м н/о -0.6 -1.6 93 -4 -4 1019.3 1011.8
22 18.01 ЮВ 2
{4}
6000 м н/о -1.0 -1.7 95 -5 -5 1019.1 1011.6
23 18.01 ЮВ 2
{4}
10 км н/о -1.0 -2.0 93 -5 -5 1019.0 1011.5
00 19.01 ЮВ 2
{4}
6000 м н/о -2.3 -2.8 96 -6 -6 1018.6 1011.1
01 19.01 ЮВ 2
{3}
6000 м н/о -2.2 -2.9 95 -6 -6 1018.1 1010.5
02 19.01 ЮВ 2
{3}
10 км н/о -2.3 -3.2 94 -6 -6 1017.8 1010.2
03 19.01
{3}
9000 м н/о -3.0 -3.8 94 1017.2 1009.7
04 19.01 В 2
{2}
9000 м н/о -3.1 -3.8 95 -7 -7 1016.7 1009.2
05 19.01
{2}
8000 м н/о -3.2 -3.9 95 1016.2 1008.7
06 19.01 ЮВ 2
{3}
11 км н/о -3.4 -4.3 93 -8 -8 1016.0 1008.3 -3.8
07 19.01 ЮВ 3
{4}
14 км н/о -2.8 -4.0 91 -8 -8 1015.7 1008.2
08 19.01 В 3
{5}
11 км н/о -2.9 -4.0 92 -8 -8 1015.7 1008.1

 

Местоположение метеостанции Шьевр (Бельгия): широта 50.57 долгота 3.83 высота над уровнем моря 63 м.

В архиве по умолчанию представлена погода в Шьевре за последнюю неделю. Архивные данные за месяц целиком и за предыдущие месяцы, начиная с января 2011 года, Вы можете получить, выбрав интересующий диапазон дат из раскрывающегося списка и нажав кнопку "Ввод!".


*Определитесь, кто Вы:
робот инопланетянин человек

Внимание! Время в таблицах - всемирное. Для получения местного времени необходимо прибавить поправку, которая равна 1 ч.

Смотрите также архив погоды в соседних городах и на ближайших метеорологических станциях:

Погода в Семмерзэйке (Бельгия) (42 км)
Погода в Уккеле (Бельгия) (45 км)
Погода в Шарлеруа (Бельгия) (45 км)
Погода в Мелле (Бельгия) (46 км)
Погода в Лиле (Франция) (52 км)
Погода в Эрнаже (Бельгия) (61 км)
Погода в Брюсселе (Бельгия) (61 км)
Погода в Бейтеме (Бельгия) (62 км)
Погода в Генте (Бельгия) (68 км)
Погода в Бовешене (Бельгия) (69 км)

Пояснения к столбцам:

Ветер - указаны скорость ветра в м/с - средняя за 10 мин, порывы в срок и между сроками (в фигурных скобках) и направление, откуда дует ветер: С - северный, СВ - северо-восточный, В - восточный, ЮВ - юго-восточный, Ю - южный, ЮЗ - юго-западный, З - западный, СЗ - северо-западный.
Видимость - горизонтальная дальность видимости в метрах или километрах. При видимости от 1 до 10 км при отсутствии осадков обычно наблюдается дымка, при ухудшении видимости до 1 км и менее - туман. В сухую погоду видимость может ухудшаться дымом, пылью или мглою.
Явления - указаны атмосферные явления, наблюдавшиеся в срок или в последний час перед сроком; фигурными скобками обозначены явления, наблюдавшиеся между сроками (за 1-3 часа до срока); квадратными скобками обозначены град или гололедные отложения с указанием их диаметра в мм.
Облачность - указаны через наклонную черту общая и нижняя облачность в баллах и высота нижней границы облаков в метрах; квадратными скобками обозначены формы облаков: Ci - перистые, Cs - перисто-слоистые, Cc - перисто-кучевые, Ac - высококучевые, As - высокослоистые, Sc - слоисто-кучевые, Ns - слоисто-дождевые, Cu - кучевые, Cb - кучево-дождевые. Подробнее классификацию облаков см. в Атласе облаков (PDF).
T - Температура воздуха - температура, измеренная на высоте 2 м над землей.
Td - Температура точки росы - температура, при понижении до которой содержащийся в воздухе водяной пар достигнет насыщения.
f - Относительная влажность воздуха - влажноcть воздуха, измеренная на высоте 2 м над землей.
Te - Эффективная температура - температура, которую ощущает одетый по сезону человек в тени. Характеристика душности погоды. При расчете учитывается влияние влажности воздуха и скорости ветра на теплоощущения человека.
Tes - Эффективная температура на солнце - температура, которую ощущает человек, с поправкой на солнечный нагрев. Характеристика знойности погоды. Зависит от высоты солнца над горизонтом, облачности и скорости ветра. Ночью, в пасмурную погоду, а также при ветре 12 м/с и более поправка равна нулю.
P - Атмосферное давление - приведенное к уровню моря атмосферное давление.
Po - Атмосферное давление - измеренное на уровне метеостанции атмосферное давление.
Tmin - Минимальная температура - минимум температуры воздуха на высоте 2 м над землей.
Tmax - Максимальная температура - максимум температуры воздуха на высоте 2 м над землей.
R - Количество осадков - Количество выпавших осадков за период времени, мм. При наведении курсора мыши на число - период времени, за который выпало указанное количество осадков.
R24 - Количество осадков - Количество выпавших осадков за 24 часа, мм.
S - Снежный покров - Высота снежного покрова, см. При наведении курсора мыши на число - состояние снежного покрова и степень покрытия местности в баллах.